sat.trackr.live / text

‹ back to catalog

STARLINK-3964

NORAD 52536 · 2022-051D

PAYLOAD ACTIVE UNKNOWN

§ Identity

Operator
Country
US
Launch date
2022-05-13
Launch site
AFWTR
Launch vehicle
Mass (kg)
RCS (m²)

Purposes: comms

External: N2YO · Heavens-Above · Gunter

§ Orbital elements

Epoch: 2026-05-25T03:32:19.348224Z

Period
95.44 min
Inclination
53.2135°
Eccentricity
0.0001105
Mean motion
15.08842335 rev/d
Perigee alt
539.0 km
Apogee alt
540.5 km
Semi-major
6,917.9 km
B*
2.5647e-4
RAAN
145.8864°
Arg perigee
80.9067°
Mean anomaly
279.2050°
Rev number
22,298

§ Raw data

STARLINK-39641 52536U 22051D   26145.14744616  .00003796  00000+0  25647-3 0  99932 52536  53.2135 145.8864 0001105  80.9067 279.2050 15.08842335222982

JSON: /api/v1/satellites/52536 · /tle

For live sub-satellite position, see the globe view (requires WebGL).

§ Visibility from observer

Set your observer location to see the next 7 days of passes ≥ 10°. The values pass through the URL so the page stays shareable.

No JS? Fill the form by hand. The geolocation button needs JavaScript.